Date String (YYYY-MM-DD hh:mm:ss) UTC,Instrument flags,absolute air pressure of the measurement (hPa),sample flow rate (lpm),inlet stack bypass flow (lpm),air temperature of the measurement (°C),ambient temperature measured by the external sensor (°C),aerosol sample conditioner tube jacket temperature (°C),OPC LED temperature (°C),internal box temperature (°C),relative humidity of the measurement (%),span deviation,mass concentration of particles derived from Lorenz-Mie calculation of OPC scattering (μg/m³),mass concentration of particles derived from Lorenz-Mie calculation of OPC scattering (μg/m³),mass concentration of particles derived from Lorenz-Mie calculation of OPC scattering (μg/m³)
DateTimeUTC,F1_M11,P_M11,Q1_M11,Q2_M11,T1_M11,T2_M11,T3_M11,T4_M11,T5_M11,U1_M11,ZSPAN_M11,X0_M11,X2_M11,X1_M11
2023-08-10 08:00:00,SystemResetWarning,0828.6,4.99,000.00,029.4,027.5,000.0,038.1,031.0,22.6,0000.8,0012.19,0005.97,0005.28
2023-08-10 08:01:00,SystemResetWarning,0828.6,4.99,000.00,029.4,027.7,000.0,038.1,031.0,22.6,0000.4,0012.31,0005.98,0005.29
2023-08-10 08:02:00,SystemResetWarning,0828.6,5.00,000.00,029.4,027.8,000.0,038.1,031.0,22.6,0000.7,0012.14,0005.97,0005.29
2023-08-10 08:03:00,SystemResetWarning,0828.6,5.01,000.00,029.4,027.9,000.0,038.1,031.0,22.7,0000.0,0012.51,0005.97,0005.30
2023-08-10 08:04:00,SystemResetWarning,0828.6,5.01,000.00,029.4,028.0,000.0,038.1,031.1,22.7,0000.1,0012.82,0005.99,0005.30
2023-08-10 08:05:00,SystemResetWarning,0828.6,4.99,000.00,029.5,028.0,000.0,038.1,031.1,22.7,0000.9,0012.54,0005.99,0005.30
2023-08-10 08:06:00,SystemResetWarning,0828.6,5.00,000.00,029.5,028.1,000.0,038.1,031.1,22.8,0001.5,0012.41,0005.97,0005.29
2023-08-10 08:07:00,SystemResetWarning,0828.6,5.00,000.00,029.5,028.1,000.0,038.1,031.2,22.8,0001.3,0012.43,0005.93,0005.29
2023-08-10 08:08:00,SystemResetWarning,0828.6,5.00,000.00,029.5,028.2,000.0,038.1,031.2,22.9,0000.4,0012.53,0005.93,0005.28
2023-08-10 08:09:00,SystemResetWarning,0828.6,5.00,000.00,029.6,028.2,000.0,038.1,031.2,22.9,0000.4,0012.24,0005.91,0005.26
2023-08-10 08:10:00,SystemResetWarning,0828.6,5.00,000.00,029.6,028.3,000.0,038.2,031.2,22.7,0001.1,0012.36,0005.96,0005.28
2023-08-10 08:11:00,SystemResetWarning,0828.6,5.00,000.00,029.6,028.3,000.0,038.2,031.2,22.4,0001.6,0012.53,0005.94,0005.28
2023-08-10 08:12:00,SystemResetWarning,0828.6,5.00,000.00,029.6,028.3,000.0,038.2,031.3,22.2,0001.9,0012.72,0005.94,0005.27
2023-08-10 08:13:00,SystemResetWarning,0828.6,5.00,000.00,029.6,028.4,000.0,038.2,031.3,22.2,0001.9,0012.67,0005.93,0005.26
2023-08-10 08:14:00,SystemResetWarning,0828.5,5.00,000.00,029.7,028.4,000.0,038.2,031.3,22.2,0001.7,0012.31,0005.92,0005.26
2023-08-10 08:15:00,SystemResetWarning,0828.5,5.00,000.00,029.7,028.4,000.0,038.2,031.3,22.3,0001.6,0012.11,0005.92,0005.26
2023-08-10 08:16:00,SystemResetWarning,0828.5,5.00,000.00,029.7,028.4,000.0,038.3,031.3,22.2,0001.2,0011.65,0005.90,0005.26
2023-08-10 08:17:00,SystemResetWarning,0828.6,5.00,000.00,029.7,028.5,000.0,038.3,031.3,22.2,0000.5,0012.16,0005.92,0005.27
2023-08-10 08:18:00,SystemResetWarning,0828.5,5.00,000.00,029.7,028.5,000.0,038.3,031.4,22.3,0000.3,0012.45,0005.92,0005.28
2023-08-10 08:19:00,SystemResetWarning,0828.5,5.00,000.00,029.8,028.5,000.0,038.3,031.4,22.6,0000.2,0012.47,0005.96,0005.30
2023-08-10 08:20:00,SystemResetWarning,0828.5,5.00,000.00,029.8,028.5,000.0,038.3,031.4,22.8,0000.0,0011.53,0005.96,0005.30
2023-08-10 08:21:00,SystemResetWarning,0828.5,4.99,000.00,029.8,028.5,000.0,038.3,031.4,22.9,0000.0,0011.58,0005.94,0005.29
2023-08-10 08:22:00,SystemResetWarning,0828.4,5.00,000.00,029.8,028.5,000.0,038.4,031.4,22.6,0000.0,0012.12,0005.95,0005.28
2023-08-10 08:23:00,SystemResetWarning,0828.5,5.00,000.00,029.8,028.4,000.0,038.4,031.4,22.4,0000.0,0012.04,0005.98,0005.29
2023-08-10 08:24:00,SystemResetWarning,0828.4,5.00,000.00,029.8,026.7,000.0,038.2,031.2,22.4,0000.0,0011.65,0005.96,0005.29
2023-08-10 08:25:00,SystemResetWarning,0828.4,5.01,000.00,029.7,025.3,000.0,038.1,030.9,22.2,0000.0,0011.69,0005.98,0005.31
2023-08-10 08:26:00,SystemResetWarning,0828.4,5.01,000.00,029.6,025.2,000.0,038.1,030.6,22.2,0000.0,0011.67,0005.98,0005.31
2023-08-10 08:27:00,SystemResetWarning,0828.4,5.00,000.00,029.5,025.5,000.0,038.1,030.5,22.3,0000.0,0011.63,0005.98,0005.32
2023-08-10 08:28:00,SystemResetWarning,0828.4,5.00,000.00,029.4,025.9,000.0,038.1,030.7,22.3,0000.0,0011.25,0005.97,0005.33
2023-08-10 08:29:00,SystemResetWarning,0828.4,5.01,000.00,029.4,026.3,000.0,038.1,030.8,22.6,0000.0,0010.82,0005.95,0005.33
2023-08-10 08:30:00,SystemResetWarning,0828.4,5.00,000.00,029.4,026.7,000.0,038.1,030.8,22.9,0000.0,0010.61,0005.92,0005.32
2023-08-10 08:31:00,SystemResetWarning,0828.5,5.00,000.00,029.4,027.0,000.0,038.1,030.9,22.8,0002.7,0010.95,0005.94,0005.32
2023-08-10 08:32:00,SystemResetWarning,0828.5,5.01,000.00,029.4,027.2,000.0,038.1,030.9,23.0,0002.6,0010.90,0005.96,0005.33
2023-08-10 08:33:00,SystemResetWarning,0828.5,5.00,000.00,029.4,027.4,000.0,038.1,031.0,23.0,0001.8,0010.92,0005.96,0005.33
2023-08-10 08:34:00,SystemResetWarning,0828.5,5.00,000.00,029.4,027.6,000.0,038.1,031.0,23.0,0001.6,0011.07,0005.94,0005.32
2023-08-10 08:35:00,SystemResetWarning,0828.5,5.00,000.00,029.4,027.7,000.0,038.1,031.0,23.0,0000.7,0011.94,0005.92,0005.30
2023-08-10 08:36:00,SystemResetWarning,0828.4,5.00,000.00,029.4,027.8,000.0,038.1,031.0,22.4,0000.4,0012.34,0005.93,0005.29
2023-08-10 08:37:00,SystemResetWarning,0828.5,4.99,000.00,029.4,027.9,000.0,038.1,031.1,22.4,0000.1,0012.36,0005.94,0005.30
2023-08-10 08:38:00,SystemResetWarning,0828.5,5.00,000.00,029.5,028.0,000.0,038.1,031.1,22.1,0000.2,0012.58,0005.96,0005.30
2023-08-10 08:39:00,SystemResetWarning,0828.5,4.99,000.00,029.5,028.1,000.0,038.1,031.1,22.0,-000.7,0012.68,0005.97,0005.30
2023-08-10 08:40:00,SystemResetWarning,0828.5,5.00,000.00,029.5,028.1,000.0,038.1,031.1,21.8,-001.1,0012.78,0006.01,0005.30
2023-08-10 08:41:00,SystemResetWarning,0828.5,5.01,000.00,029.5,028.2,000.0,038.1,031.1,21.9,-001.3,0012.73,0006.00,0005.30
2023-08-10 08:42:00,SystemResetWarning,0828.6,5.01,000.00,029.5,028.2,000.0,038.1,031.2,22.0,-000.8,0012.31,0005.96,0005.29
2023-08-10 08:43:00,SystemResetWarning,0828.5,5.00,000.00,029.6,028.2,000.0,038.2,031.2,22.0,-000.2,0012.01,0005.92,0005.29
2023-08-10 08:44:00,SystemResetWarning,0828.6,5.00,000.00,029.6,028.3,000.0,038.2,031.2,22.2,-000.1,0012.04,0005.92,0005.29
2023-08-10 08:45:00,SystemResetWarning,0828.6,5.00,000.00,029.6,028.3,000.0,038.2,031.2,22.3,0000.0,0011.45,0005.91,0005.29
2023-08-10 08:46:00,SystemResetWarning,0828.5,5.00,000.00,029.6,028.4,000.0,038.2,031.3,22.3,0000.3,0010.79,0005.90,0005.29
2023-08-10 08:47:00,SystemResetWarning,0828.6,5.00,000.00,029.6,028.4,000.0,038.2,031.3,22.2,0000.0,0010.22,0005.90,0005.29
2023-08-10 08:48:00,SystemResetWarning,0828.6,5.00,000.00,029.7,028.5,000.0,038.2,031.3,22.3,0000.0,0010.63,0005.88,0005.27
2023-08-10 08:49:00,SystemResetWarning,0828.6,4.99,000.00,029.7,028.5,000.0,038.3,031.3,22.5,0000.0,0011.01,0005.87,0005.26
2023-08-10 08:50:00,SystemResetWarning,0828.6,5.00,000.00,029.7,028.5,000.0,038.3,031.4,22.5,0000.0,0011.04,0005.87,0005.25
2023-08-10 08:51:00,SystemResetWarning,0828.7,5.00,000.00,029.7,028.5,000.0,038.3,031.4,22.0,0000.0,0011.39,0005.86,0005.25
2023-08-10 08:52:00,SystemResetWarning,0828.7,5.00,000.00,029.7,028.5,000.0,038.3,031.4,21.9,0000.0,0011.36,0005.86,0005.25
2023-08-10 08:53:00,SystemResetWarning,0828.7,5.01,000.00,029.8,028.6,000.0,038.3,031.4,21.1,0000.0,0011.16,0005.83,0005.25
2023-08-10 08:54:00,SystemResetWarning,0828.7,5.00,000.00,029.8,028.6,000.0,038.4,031.4,21.1,0000.0,0011.06,0005.81,0005.25
2023-08-10 08:55:00,SystemResetWarning,0828.7,5.00,000.00,029.8,028.6,000.0,038.4,031.5,21.2,0000.0,0010.26,0005.75,0005.25
2023-08-10 08:56:00,SystemResetWarning,0828.6,5.00,000.00,029.8,028.7,000.0,038.4,031.5,21.2,0000.0,0010.21,0005.74,0005.25
2023-08-10 08:57:00,SystemResetWarning,0828.7,5.00,000.00,029.8,028.7,000.0,038.4,031.5,20.9,0000.0,0010.19,0005.75,0005.25
2023-08-10 08:58:00,SystemResetWarning,0828.7,5.00,000.00,029.9,028.7,000.0,038.4,031.5,20.7,0000.0,0010.39,0005.76,0005.25
2023-08-10 08:59:00,SystemResetWarning,0828.8,4.99,000.00,029.9,027.2,000.0,038.3,031.4,21.6,0000.0,0010.10,0005.75,0005.26
